THOR ABLESTAR DEB, 230

Orbit data source: Space-Track

THOR ABLESTAR DEB, 230 is space debris in LEO originally from a launch on Thu, 29 Jun 1961 UTC launched from the Air Force Eastern Test Range (AFETR). Debris objects in space refer to the collection of defunct objects orbiting the Earth. Examples of debris include non-operational satellites, rocket bodies, and fragments generated from explosions, collisions, or faulty payload assembly.

Loading next visibility...
Identifier
230, 1961-015BN
Orbit
LEO
Country
Flag of USUS
Related business
Manufacturer
Unknown
Mission
Spacecraft
Bus & Motor
Unknown
Mass
Unknown
Launch date (UTC)
1961-06-29 (64 years ago)
Launch vehicle
Unknown
Launch site
Air Force Eastern Test Range (AFETR)
Object type
Payload
Rocket body
Debris
Shape & HBR
Unknown
Radar Cross Section
Small (<0.1 m²)

Expand to show TLE details & history
Last TLE update: 13 hours ago

TLE from 13 hours ago
0 THOR ABLESTAR DEB
1 00230U 61015BN  25259.30133570  .00000018  00000-0  66362-4 0  9999
2 00230  66.8861   2.2541 0091993   6.4121 353.8115 13.96714346267501
Epoch: 2025-09-16T07:13Z
TLE epoch observation values (Epoch: 2025-09-16T07:13:55.404Z)
Latitude
0.00001°
Longitude
-101.72034°
Altitude
840.672 km
Speed
7.467 km/s
True Right ascension
00h 09m 00s
True Declination
0° 00' 00"
Sunlit
Object was in full shadow at epoch
Visualization orbit readout
Latitude
Unknown
Longitude
Unknown
Altitude
Unknown
Speed
Unknown
Apparent Right ascension
Unknown
Apparent Declination
Unknown
Sunlit
N/A
Visualization observer readout
Local Sidereal Time
12:47:38
Azimuth
Unknown
Elevation
Unknown
Doppler factor
Unknown
Orbital elements
Apogee altitude
970.561 km
Perigee altitude
836.587 km
Semi-major axis
7,281.711 km
Eccentricity
0.0092
Inclination
66.8861°
RAAN
2.2541°
Arg. of periapsis
6.4121°
True anomaly
353.69655°
Mean anomaly
353.8115°
Eccentric anomaly
353.75416°
Mean motion
3.49296 °/min
Orbital period
103.06 mins
BSTAR
0.000066362
Loading maneuver chart data...
Computing Atmospheric mass density...

Documentation

Showing up to 5 results
|